Home > Weather > Banjul > Past weeks

Flag for Gambia Past Weather in Banjul, Gambia — Yesterday and Last 2 Weeks

Now
77 °F

Rain. Broken clouds.


Feels Like: 78 °F
Forecast: N/A
Wind: 6 mph from Southwest

Location: Banjul / Yundum

Current Time: Jul 25, 2016 at 5:57:14 PM

Latest Report: Jul 25, 2016 at 5:30 PM


Visibility: 4 mi

Pressure: 29.80 "Hg

Humidity: 100%

Dew Point: 77 °F

Location of BanjulLocation

Past Weather in Banjul — Graph

°F

Banjul Temperature Yesterday

Maximum temperature yesterday: 82 °F (at 5:00 PM)
Minimum temperature yesterday: 75 °F (at 6:00 AM)
Average temperature yesterday: 78 °F

High & Low Weather Summary for the Past Weeks

 TemperatureHumidityPressure
High93 °F (Jul 19, 4:07 PM)100% (Jul 15, 7:00 AM)29.95 "Hg (Jul 15, 7:00 AM)
Low73 °F (Jul 22, 3:00 AM)45% (Jul 15, 8:00 PM)29.80 "Hg (Jul 12, 4:00 PM)
Average80 °F83%29.87 "Hg
* Reported Jul 10 4:00 PM — Jul 25 4:45 PM, Banjul, Weather by CustomWeather, © 2016

Note: Actual official high and low records may vary slightly from our data, if they occured in-between our weather recording intervals... More about our weather records

Advertising

Banjul Weather History for the Previous 24 Hours

Scroll right to see more
 ConditionsComfort  
Time TempWeatherWind HumidityBarometerVisibility
4:45 PM
Mon, Jul 25
84 °FStrong thunderstorms. Broken clouds.9 mph84%29.80 "Hg1 mi
4:30 PM84 °FHeavy rain. Broken clouds.9 mph84%29.80 "Hg3 mi
4:00 PM84 °FBroken clouds.14 mph84%29.80 "HgN/A
3:00 PM84 °FBroken clouds.9 mph70%29.80 "HgN/A
2:00 PM82 °FBroken clouds.3 mph74%29.83 "HgN/A
1:00 PM82 °FPartly sunny.3 mph89%29.86 "HgN/A
12:00 PM79 °FPartly sunny.6 mph84%29.86 "HgN/A
11:00 AM77 °FRain. Partly sunny.7 mph94%29.89 "HgN/A
10:00 AM77 °FLight rain. Broken clouds.6 mph100%29.89 "Hg6 mi
9:00 AM77 °FLight rain. More clouds than sun.8 mph94%29.86 "Hg6 mi
8:00 AM75 °FLight rain. Broken clouds.5 mph94%29.86 "Hg6 mi
7:00 AM75 °FLight rain. Broken clouds.5 mph94%29.86 "Hg6 mi
6:00 AM73 °FPartly cloudy.5 mph94%29.83 "HgN/A
5:00 AM73 °FPartly cloudy.5 mph94%29.83 "HgN/A
4:00 AM73 °FMild.1 mph100%29.83 "HgN/A
3:00 AM73 °FLight rain. Partly cloudy.5 mph100%29.83 "Hg6 mi
2:00 AM73 °FLight rain. Partly cloudy.8 mph100%29.86 "Hg6 mi
1:00 AM75 °FLight rain. Partly cloudy.7 mph94%29.89 "Hg6 mi
12:00 AM77 °FThunderstorms. Partly cloudy.6 mph89%29.89 "HgN/A
11:00 PM
Sun, Jul 24
75 °FThunderstorms. Partly cloudy.5 mph94%29.89 "HgN/A
10:00 PM75 °FThunderstorms. Partly cloudy.6 mph94%29.89 "HgN/A
9:00 PM77 °FLight rain. Partly cloudy.7 mph89%29.86 "Hg6 mi
8:00 PM77 °FThunderstorms. Partly cloudy.2 mph94%29.86 "HgN/A
7:00 PM79 °FBroken clouds.8 mph89%29.83 "HgN/A
6:00 PM81 °FBroken clouds.5 mph79%29.83 "HgN/A
5:00 PM82 °FBroken clouds.8 mph79%29.86 "HgN/A
Weather by CustomWeather, © 2016

See weather overviewHow to use our weather pages